Find STARLINK-37240

NORAD ID: 70619 Constellation: starlink operational
LEOCIRCULARRETROGRADE

实时位置

正在加载3D地球...

关于 STARLINK-37240

正在加载描述...

即将过境

Passes for default location (London). Set your location on the main map for personalized predictions.

高度历史

Loading altitude history...

两行轨道根数

1 70619C 26101G 26126.32062500 .00348490 00000+0 54779-3 0 1262
2 70619 97.2849 339.8620 0009887 259.7298 38.3347 16.03660108 19
Epoch: May 6, 2026 • Age: 20 hours